DW5588 Weather Reports


time (UTC)temp
C
wind
direction
speed
KPH
gust
KPH
rain 1hr
cm
rain 24hr
cm
rain mn
cm
humidity
%
barometer
mb
20260509064504 10 194 4.8 12.9 0.00 0.00 0.00 39 1002.3
20260509064004 10 197 6.4 16.1 0.00 0.00 0.00 39 1002.3
20260509063003 10 195 8.0 14.5 0.00 0.00 0.00 38 1002.2
20260509062003 10 196 4.8 11.3 0.00 0.00 0.00 39 1002.2
20260509061504 10 197 6.4 12.9 0.00 0.00 0.00 40 1002.7
20260509061003 10 195 8.0 12.9 0.00 0.00 0.00 40 1002.7
20260509060504 10 194 6.4 12.9 0.00 0.00 0.00 39 1002.7
20260509060004 10 195 6.4 12.9 0.00 0.00 0.00 39 1002.7
20260509055504 10 197 4.8 11.3 0.00 0.00 0.00 40 1002.7
20260509055004 10 201 3.2 9.7 0.00 0.00 0.00 40 1002.7
20260509054504 10 201 3.2 9.7 0.00 0.00 0.00 41 1002.8
20260509054004 10 199 4.8 11.3 0.00 0.00 0.00 41 1002.8
20260509053004 10 196 4.8 11.3 0.00 0.00 0.00 41 1002.9
20260509052504 10 195 3.2 8.0 0.00 0.00 0.00 41 1002.9
20260509052004 10 195 3.2 9.7 0.00 0.00 0.00 41 1002.9
20260509051504 10 194 4.8 9.7 0.00 0.00 0.00 41 1003.2
20260509051003 10 193 4.8 9.7 0.00 0.00 0.00 41 1003.2
20260509050504 10 196 4.8 9.7 0.00 0.00 0.00 41 1003.2
20260509050004 10 194 4.8 11.3 0.00 0.00 0.00 41 1003.3
20260509045504 10 195 4.8 11.3 0.00 0.00 0.00 41 1003.3
20260509045004 11 197 4.8 9.7 0.00 0.00 0.00 41 1003.3
20260509044504 10 198 3.2 9.7 0.00 0.00 0.00 41 1003.4
20260509043004 10 200 1.6 4.8 0.00 0.00 0.00 41 1003.3
20260509042504 10 198 0.0 4.8 0.00 0.00 0.00 42 1003.3
20260509042004 10 222 0.0 1.6 0.00 0.00 0.00 42 1003.3
20260509041503 10 203 0.0 1.6 0.00 0.00 0.00 42 1003.5
20260509041004 10 197 0.0 3.2 0.00 0.00 0.00 42 1003.5
20260509040503 11 196 0.0 3.2 0.00 0.00 0.00 42 1003.5
20260509040006 11 0 0.0 0.0 0.00 0.00 0.00 41 1003.8
20260509035503 11 0 0.0 0.0 0.00 0.00 0.00 41 1003.8
20260509034503 11 200 0.0 4.8 0.00 0.00 0.00 40 1003.8
20260509033504 11 200 0.0 4.8 0.00 0.00 0.00 39 1003.8
20260509033004 11 200 0.0 4.8 0.00 0.00 0.00 39 1003.9
20260509032504 11 192 0.0 4.8 0.00 0.00 0.00 39 1003.9
20260509032004 11 195 1.6 4.8 0.00 0.00 0.00 39 1003.9
20260509031503 11 197 1.6 4.8 0.00 0.00 0.00 38 1004.3
20260509031004 12 197 0.0 4.8 0.00 0.00 0.00 38 1004.3
20260509030503 12 199 0.0 4.8 0.00 0.00 0.00 38 1004.3
20260509030004 12 199 1.6 4.8 0.00 0.00 0.00 37 1004.4
20260509025503 12 197 1.6 4.8 0.00 0.00 0.00 37 1004.4
20260509025004 12 194 0.0 4.8 0.00 0.00 0.00 37 1004.4
20260509024503 12 186 0.0 3.2 0.00 0.00 0.00 37 1004.4
20260509023503 12 197 0.0 4.8 0.00 0.00 0.00 36 1004.4
20260509023004 12 195 1.6 4.8 0.00 0.00 0.00 36 1004.4
20260509022503 12 190 1.6 4.8 0.00 0.00 0.00 37 1004.4
20260509022004 12 190 0.0 6.4 0.00 0.00 0.00 36 1004.4
20260509021503 12 194 0.0 6.4 0.00 0.00 0.00 36 1004.4
20260509021004 12 196 0.0 3.2 0.00 0.00 0.00 36 1004.4
20260509020503 12 210 0.0 1.6 0.00 0.00 0.00 35 1004.4
20260509015504 13 165 0.0 1.6 0.00 0.00 0.00 35 1004.4
20260509015004 13 0 0.0 0.0 0.00 0.00 0.00 34 1004.4
20260509014503 13 192 0.0 3.2 0.00 0.00 0.00 34 1004.4
20260509014004 13 185 1.6 6.4 0.00 0.00 0.00 34 1004.4
20260509013503 13 184 1.6 6.4 0.00 0.00 0.00 33 1004.4
20260509013004 13 183 1.6 6.4 0.00 0.00 0.00 33 1004.3
20260509012503 13 183 0.0 4.8 0.00 0.00 0.00 33 1004.3
20260509012004 13 193 0.0 4.8 0.00 0.00 0.00 33 1004.3
20260509011503 13 201 0.0 3.2 0.00 0.00 0.00 32 1004.3
20260509011004 14 203 0.0 3.2 0.00 0.00 0.00 32 1004.3
20260509010503 14 218 0.0 1.6 0.00 0.00 0.00 31 1004.3
20260509010004 14 196 0.0 3.2 0.00 0.00 0.00 31 1004.3
20260509005503 15 197 0.0 3.2 0.00 0.00 0.00 30 1004.3
20260509005004 15 196 0.0 4.8 0.00 0.00 0.00 30 1004.3
20260509004503 15 200 1.6 4.8 0.00 0.00 0.00 30 1004.2
20260509003503 15 193 0.0 4.8 0.00 0.00 0.00 29 1004.2
20260509003004 15 199 0.0 1.6 0.00 0.00 0.00 29 1004.1
20260509002503 16 233 0.0 3.2 0.00 0.00 0.00 29 1004.1
20260509001503 16 302 1.6 9.7 0.00 0.00 0.00 27 1003.9
20260509001004 16 300 1.6 6.4 0.00 0.00 0.00 26 1003.9
20260509000503 16 303 3.2 9.7 0.00 0.00 0.00 27 1003.9
20260509000004 16 303 3.2 9.7 0.00 0.00 0.00 26 1003.9
20260508235504 16 302 4.8 12.9 0.00 0.00 0.00 25 1003.9
20260508235004 16 305 4.8 12.9 0.00 0.00 0.00 25 1003.9
20260508233503 17 299 3.2 12.9 0.00 0.00 0.00 24 1003.9
20260508233004 17 304 3.2 11.3 0.00 0.00 0.00 24 1004.0
20260508232004 17 297 1.6 14.5 0.00 0.00 0.00 25 1004.0
20260508231503 17 300 4.8 14.5 0.00 0.00 0.00 26 1003.9
20260508230503 17 296 6.4 17.7 0.00 0.00 0.00 24 1003.9
20260508230004 17 295 4.8 17.7 0.00 0.00 0.00 23 1004.0
20260508225504 17 302 3.2 14.5 0.00 0.00 0.00 24 1004.0
20260508225004 17 300 3.2 12.9 0.00 0.00 0.00 27 1003.9
20260508224504 17 301 4.8 14.5 0.00 0.00 0.00 26 1003.9
20260508224003 17 294 3.2 14.5 0.00 0.00 0.00 25 1003.9
20260508223504 17 279 1.6 14.5 0.00 0.00 0.00 27 1003.9
20260508223003 17 287 3.2 14.5 0.00 0.00 0.00 26 1004.0
20260508222504 17 240 3.2 11.3 0.00 0.00 0.00 27 1004.0
20260508222004 17 283 6.4 19.3 0.00 0.00 0.00 26 1004.0
20260508221504 17 300 6.4 19.3 0.00 0.00 0.00 26 1004.1
20260508221004 17 306 4.8 19.3 0.00 0.00 0.00 26 1004.1
20260508220504 17 307 8.0 20.9 0.00 0.00 0.00 27 1004.1
20260508220004 17 283 6.4 20.9 0.00 0.00 0.00 27 1004.3
20260508214504 17 252 4.8 17.7 0.00 0.00 0.00 29 1004.3
20260508214004 17 208 6.4 17.7 0.00 0.00 0.00 26 1004.3
20260508213004 17 195 4.8 16.1 0.00 0.00 0.00 26 1004.3
20260508212504 17 227 4.8 14.5 0.00 0.00 0.00 28 1004.3
20260508212003 17 200 4.8 17.7 0.00 0.00 0.00 28 1004.3
20260508210504 17 200 4.8 30.6 0.00 0.00 0.00 30 1004.4
20260508210004 17 209 1.6 11.3 0.00 0.00 0.00 28 1004.6
20260508205504 17 306 3.2 14.5 0.00 0.00 0.00 29 1004.6
20260508205004 17 284 6.4 16.1 0.00 0.00 0.00 28 1004.6
20260508204504 17 286 8.0 20.9 0.00 0.00 0.00 27 1004.6
20260508204004 17 277 8.0 20.9 0.00 0.00 0.00 27 1004.6
20260508203503 17 240 4.8 14.5 0.00 0.00 0.00 28 1004.6
20260508203004 17 235 1.6 9.7 0.00 0.00 0.00 27 1004.9
20260508201504 17 284 3.2 17.7 0.00 0.00 0.00 28 1005.0
20260508201004 17 244 3.2 17.7 0.00 0.00 0.00 29 1005.0
20260508200504 17 232 1.6 12.9 0.00 0.00 0.00 28 1005.0
20260508200004 16 308 3.2 14.5 0.00 0.00 0.00 28 1005.4
20260508195004 16 295 6.4 14.5 0.00 0.00 0.00 29 1005.4
20260508194504 16 300 8.0 27.4 0.00 0.00 0.00 26 1005.5
20260508194004 16 301 4.8 27.4 0.00 0.00 0.00 26 1005.5
20260508193504 16 299 8.0 22.5 0.00 0.00 0.00 26 1005.5
20260508193004 16 297 8.0 22.5 0.00 0.00 0.00 27 1005.5
20260508192004 17 295 4.8 16.1 0.00 0.00 0.00 28 1005.5
20260508191504 16 307 8.0 20.9 0.00 0.00 0.00 28 1005.7
20260508191004 17 301 8.0 43.5 0.00 0.00 0.00 29 1005.7
20260508190503 17 191 8.0 43.5 0.00 0.00 0.00 30 1005.7
20260508190004 16 198 11.3 19.3 0.00 0.00 0.00 26 1006.0
20260508185504 17 215 8.0 22.5 0.00 0.00 0.00 26 1006.0
20260508184504 16 265 3.2 17.7 0.00 0.00 0.00 26 1006.1
20260508184004 16 221 6.4 19.3 0.00 0.00 0.00 26 1006.1
20260508183504 17 194 6.4 22.5 0.00 0.00 0.00 26 1006.1
20260508183003 17 190 4.8 22.5 0.00 0.00 0.00 27 1006.4
20260508182504 16 195 4.8 17.7 0.00 0.00 0.00 30 1006.4
20260508182004 16 194 8.0 22.5 0.00 0.00 0.00 28 1006.4
20260508181503 17 194 8.0 22.5 0.00 0.00 0.00 27 1006.6
20260508180504 16 187 6.4 17.7 0.00 0.00 0.00 26 1006.6
20260508180004 16 198 4.8 17.7 0.00 0.00 0.00 27 1007.1
20260508175504 16 299 4.8 14.5 0.00 0.00 0.00 30 1007.1
20260508175004 15 244 8.0 19.3 0.00 0.00 0.00 28 1007.1
20260508174503 16 185 8.0 19.3 0.00 0.00 0.00 27 1007.3
20260508174004 15 253 6.4 14.5 0.00 0.00 0.00 27 1007.2
20260508173504 15 235 8.0 25.7 0.00 0.00 0.00 29 1007.3
20260508173003 15 237 8.0 25.7 0.00 0.00 0.00 27 1007.3
20260508172003 16 198 4.8 14.5 0.00 0.00 0.00 28 1007.3
20260508171504 15 195 3.2 14.5 0.00 0.00 0.00 27 1007.6
20260508171003 15 259 1.6 14.5 0.00 0.00 0.00 28 1007.6
20260508170504 15 264 3.2 22.5 0.00 0.00 0.00 28 1007.6
20260508170004 15 276 4.8 22.5 0.00 0.00 0.00 30 1007.7
20260508165503 15 302 6.4 19.3 0.00 0.00 0.00 30 1007.7
20260508165004 15 282 8.0 19.3 0.00 0.00 0.00 27 1007.7
20260508164504 15 201 4.8 14.5 0.00 0.00 0.00 30 1008.1
20260508164003 15 216 3.2 14.5 0.00 0.00 0.00 29 1008.0
20260508163504 15 301 4.8 16.1 0.00 0.00 0.00 31 1008.1
20260508163003 14 300 8.0 22.5 0.00 0.00 0.00 33 1008.1
20260508161504 14 294 6.4 20.9 0.00 0.00 0.00 28 1008.1
20260508161004 14 288 4.8 20.9 0.00 0.00 0.00 29 1008.1
20260508160504 14 216 1.6 11.3 0.00 0.00 0.00 32 1008.1
20260508155504 14 296 3.2 16.1 0.00 0.00 0.00 33 1008.2
20260508155004 13 301 3.2 16.1 0.00 0.00 0.00 31 1008.2
20260508154504 14 222 1.6 11.3 0.00 0.00 0.00 32 1008.3
20260508154004 14 187 3.2 11.3 0.00 0.00 0.00 34 1008.3
20260508153503 14 181 3.2 9.7 0.00 0.00 0.00 31 1008.3
20260508153004 14 188 3.2 9.7 0.00 0.00 0.00 33 1008.5
20260508152504 13 182 3.2 8.0 0.00 0.00 0.00 34 1008.5
20260508152004 13 246 4.8 17.7 0.00 0.00 0.00 36 1008.5
20260508151504 13 214 6.4 17.7 0.00 0.00 0.00 34 1008.6
20260508151003 13 182 4.8 16.1 0.00 0.00 0.00 36 1008.6
20260508150005 13 298 4.8 12.9 0.00 0.00 0.00 38 1008.7
20260508145503 12 287 4.8 12.9 0.00 0.00 0.00 37 1008.7
20260508145004 12 270 3.2 12.9 0.00 0.00 0.00 37 1008.7
20260508144504 12 277 3.2 14.5 0.00 0.00 0.00 37 1008.8
20260508144003 12 211 4.8 14.5 0.00 0.00 0.00 38 1008.8
20260508143504 12 200 4.8 12.9 0.00 0.00 0.00 40 1008.8
20260508143004 12 229 3.2 11.3 0.00 0.00 0.00 39 1009.0
20260508142503 12 276 3.2 11.3 0.00 0.00 0.00 44 1009.0
20260508142004 12 293 3.2 9.7 0.00 0.00 0.00 43 1009.0
20260508141504 12 274 3.2 9.7 0.00 0.00 0.00 43 1009.1
20260508141003 12 289 1.6 11.3 0.00 0.00 0.00 45 1009.1
20260508140504 11 271 3.2 11.3 0.00 0.00 0.00 46 1009.1
20260508140004 11 192 3.2 11.3 0.00 0.00 0.00 49 1009.2
20260508135504 11 189 4.8 11.3 0.00 0.00 0.00 48 1009.2
20260508134504 11 178 3.2 11.3 0.00 0.00 0.00 50 1009.1
20260508134004 11 174 3.2 11.3 0.00 0.00 0.00 52 1009.1
20260508133504 10 176 3.2 11.3 0.00 0.00 0.00 53 1009.1
20260508133003 10 185 4.8 14.5 0.00 0.00 0.00 55 1009.1
20260508132504 10 183 4.8 14.5 0.00 0.00 0.00 55 1009.1
20260508131504 10 192 1.6 12.9 0.00 0.00 0.00 56 1009.2
20260508131004 9 191 1.6 11.3 0.00 0.00 0.00 57 1009.2
20260508130504 9 206 1.6 9.7 0.00 0.00 0.00 57 1009.2
20260508125503 8 175 3.2 11.3 0.00 0.00 0.00 58 1009.3
20260508125003 8 175 4.8 11.3 0.00 0.00 0.00 57 1009.3
20260508124504 8 182 1.6 11.3 0.00 0.00 0.00 57 1009.3
20260508124004 8 174 0.0 6.4 0.00 0.00 0.00 59 1009.3
20260508123504 8 169 0.0 6.4 0.00 0.00 0.00 60 1009.3
20260508122504 7 178 0.0 3.2 0.00 0.00 0.00 64 1009.2
20260508122004 7 174 0.0 3.2 0.00 0.00 0.00 67 1009.1
20260508121503 6 174 0.0 3.2 0.00 0.00 0.00 68 1009.0
20260508121004 6 0 0.0 0.0 0.00 0.00 0.00 69 1009.0
20260508120503 6 0 0.0 0.0 0.00 0.00 0.00 70 1009.0
20260508120004 5 0 0.0 0.0 0.00 0.00 0.00 70 1009.1
20260508115504 5 0 0.0 0.0 0.00 0.00 0.00 70 1009.1
20260508115004 5 0 0.0 0.0 0.00 0.00 0.00 71 1009.1
20260508114504 5 0 0.0 0.0 0.00 0.00 0.00 71 1009.1
20260508114004 5 210 0.0 1.6 0.00 0.00 0.00 74 1009.1
20260508113504 4 210 0.0 1.6 0.00 0.00 0.00 74 1009.1
20260508113005 4 0 0.0 0.0 0.00 0.00 0.00 75 1009.0
20260508112504 3 0 0.0 0.0 0.00 0.00 0.00 75 1009.0
20260508112004 3 0 0.0 0.0 0.00 0.00 0.00 78 1009.0
20260508111504 3 0 0.0 0.0 0.00 0.00 0.00 81 1008.6
20260508111004 2 0 0.0 0.0 0.00 0.00 0.00 81 1008.6
20260508110504 2 0 0.0 0.0 0.00 0.00 0.00 78 1008.7
20260508110004 2 0 0.0 0.0 0.00 0.00 0.00 78 1008.7
20260508105504 2 0 0.0 0.0 0.00 0.00 0.00 78 1008.7
20260508105004 2 0 0.0 0.0 0.00 0.00 0.00 78 1008.7
20260508104504 2 0 0.0 0.0 0.00 0.00 0.00 78 1008.9
20260508104004 2 0 0.0 0.0 0.00 0.00 0.00 78 1008.9
20260508103004 2 0 0.0 0.0 0.00 0.00 0.00 78 1008.9
20260508101504 2 0 0.0 0.0 0.00 0.00 0.00 78 1009.1
20260508101004 2 0 0.0 0.0 0.00 0.00 0.00 78 1009.1
20260508100504 2 0 0.0 0.0 0.00 0.00 0.00 78 1009.1
20260508100004 2 0 0.0 0.0 0.00 0.00 0.00 78 1009.1
20260508095504 2 0 0.0 0.0 0.00 0.00 0.00 78 1009.1
20260508095004 2 0 0.0 0.0 0.00 0.00 0.00 78 1009.1
20260508094004 2 0 0.0 0.0 0.00 0.00 0.00 78 1009.2
20260508093504 2 0 0.0 0.0 0.00 0.00 0.00 78 1009.2
20260508093004 2 0 0.0 0.0 0.00 0.00 0.00 78 1009.2
20260508092504 2 0 0.0 0.0 0.00 0.00 0.00 78 1009.2
20260508092004 2 0 0.0 0.0 0.00 0.00 0.00 78 1009.2
20260508091504 2 0 0.0 0.0 0.00 0.00 0.00 78 1009.2
20260508090503 2 0 0.0 0.0 0.00 0.00 0.00 78 1009.2
20260508090004 2 0 0.0 0.0 0.00 0.00 0.00 78 1009.1
20260508085003 2 0 0.0 0.0 0.00 0.00 0.00 78 1009.1
20260508084003 2 0 0.0 0.0 0.00 0.00 0.00 77 1009.1
20260508083504 2 0 0.0 0.0 0.00 0.00 0.00 77 1009.1
20260508082504 3 0 0.0 0.0 0.00 0.00 0.00 76 1009.2
20260508082003 3 0 0.0 0.0 0.00 0.00 0.00 76 1009.2
20260508081504 3 205 0.0 1.6 0.00 0.00 0.00 75 1009.2
20260508081004 3 205 0.0 1.6 0.00 0.00 0.00 75 1009.2
20260508080503 3 0 0.0 0.0 0.00 0.00 0.00 75 1009.2
20260508080004 3 206 0.0 1.6 0.00 0.00 0.00 74 1009.2
20260508075503 3 212 0.0 1.6 0.00 0.00 0.00 74 1009.2
20260508075004 3 215 0.0 1.6 0.00 0.00 0.00 73 1009.2
20260508074504 3 217 0.0 1.6 0.00 0.00 0.00 73 1009.2
20260508074004 3 218 0.0 1.6 0.00 0.00 0.00 73 1009.2
20260508073504 3 219 0.0 1.6 0.00 0.00 0.00 73 1009.2
20260508072504 3 236 0.0 1.6 0.00 0.00 0.00 73 1009.3
20260508072004 3 0 0.0 0.0 0.00 0.00 0.00 73 1009.3
20260508071504 3 0 0.0 0.0 0.00 0.00 0.00 73 1009.5
20260508071004 4 0 0.0 0.0 0.00 0.00 0.00 73 1009.5
20260508070504 4 256 0.0 1.6 0.00 0.00 0.00 72 1009.5
20260508065003 4 287 0.0 1.6 0.00 0.00 0.00 71 1009.6